Time,TemperatureF,DewpointF,PressureIn,WindDirection,WindDirectionDegrees,WindSpeedMPH,WindSpeedGustMPH,Humidity,HourlyPrecipIn,Conditions,Clouds,dailyrainin,SolarRadiationWatts/m^2,SoftwareType,DateUTC
2013-10-10 00:00:00,56.0,48.0,-100.00,South,180,5.0,-999.0,76,-99.99,,,-99.99,0.000000,,2013-10-10 05:00:00,
2013-10-10 00:43:00,56.0,48.0,-100.00,South,180,5.0,-999.0,76,-99.99,,,-99.99,0.000000,,2013-10-10 05:43:00,
2013-10-10 00:53:00,56.0,48.0,-100.00,South,180,5.0,-999.0,76,-99.99,,,-99.99,0.000000,,2013-10-10 05:53:00,
2013-10-10 01:00:00,55.0,49.0,-100.00,SSW,202,3.0,-999.0,80,-99.99,,,-99.99,0.000000,,2013-10-10 06:00:00,
2013-10-10 01:43:00,55.0,49.0,-100.00,SSW,202,3.0,-999.0,80,-99.99,,,-99.99,0.000000,,2013-10-10 06:43:00,
2013-10-10 01:53:00,55.0,49.0,-100.00,SSW,202,3.0,-999.0,80,-99.99,,,-99.99,0.000000,,2013-10-10 06:53:00,
2013-10-10 02:00:00,54.0,49.0,-100.00,SSW,202,2.0,-999.0,85,-99.99,,,-99.99,0.000000,,2013-10-10 07:00:00,
2013-10-10 02:42:00,54.0,49.0,-100.00,SSW,202,2.0,-999.0,85,-99.99,,,-99.99,0.000000,,2013-10-10 07:42:00,
2013-10-10 02:52:00,54.0,49.0,-100.00,SSW,202,2.0,-999.0,85,-99.99,,,-99.99,0.000000,,2013-10-10 07:52:00,
2013-10-10 03:00:00,52.0,49.0,-100.00,SSW,202,2.0,-999.0,89,-99.99,,,-99.99,0.000000,,2013-10-10 08:00:00,
2013-10-10 03:43:00,52.0,49.0,-100.00,SSW,202,2.0,-999.0,89,-99.99,,,-99.99,0.000000,,2013-10-10 08:43:00,
2013-10-10 03:52:00,52.0,49.0,-100.00,SSW,202,2.0,-999.0,89,-99.99,,,-99.99,0.000000,,2013-10-10 08:52:00,
2013-10-10 04:00:00,51.0,48.0,-100.00,South,180,1.0,-999.0,88,-99.99,,,-99.99,0.000000,,2013-10-10 09:00:00,
2013-10-10 04:43:00,51.0,48.0,-100.00,South,180,1.0,-999.0,88,-99.99,,,-99.99,0.000000,,2013-10-10 09:43:00,
2013-10-10 04:53:00,51.0,48.0,-100.00,South,180,1.0,-999.0,88,-99.99,,,-99.99,0.000000,,2013-10-10 09:53:00,
2013-10-10 05:00:00,43.0,41.0,-100.00,NNE,22,0.0,-999.0,92,-99.99,,,-99.99,0.000000,,2013-10-10 10:00:00,
2013-10-10 05:43:00,43.0,41.0,-100.00,NNE,22,0.0,-999.0,92,-99.99,,,-99.99,0.000000,,2013-10-10 10:43:00,
2013-10-10 05:53:00,43.0,41.0,-100.00,NNE,22,0.0,-999.0,92,-99.99,,,-99.99,0.000000,,2013-10-10 10:53:00,
2013-10-10 06:00:00,41.0,40.0,-100.00,WSW,247,0.0,-999.0,94,-99.99,,,-99.99,0.000000,,2013-10-10 11:00:00,
2013-10-10 06:42:00,41.0,40.0,-100.00,WSW,247,0.0,-999.0,94,-99.99,,,-99.99,0.000000,,2013-10-10 11:42:00,
2013-10-10 06:56:00,41.0,40.0,-100.00,WSW,247,0.0,-999.0,94,-99.99,,,-99.99,0.000000,,2013-10-10 11:56:00,
2013-10-10 07:00:00,40.0,39.0,-100.00,SW,225,0.0,-999.0,94,-99.99,,,-99.99,1.160000,,2013-10-10 12:00:00,
2013-10-10 07:42:00,40.0,39.0,-100.00,SW,225,0.0,-999.0,94,-99.99,,,-99.99,1.160000,,2013-10-10 12:42:00,
2013-10-10 07:52:00,40.0,39.0,-100.00,SW,225,0.0,-999.0,94,-99.99,,,-99.99,1.160000,,2013-10-10 12:52:00,
2013-10-10 08:00:00,41.0,40.0,-100.00,SSW,202,0.0,-999.0,95,-99.99,,,-99.99,24.360001,,2013-10-10 13:00:00,
2013-10-10 08:42:00,41.0,40.0,-100.00,SSW,202,0.0,-999.0,95,-99.99,,,-99.99,24.360001,,2013-10-10 13:42:00,
2013-10-10 08:52:00,41.0,40.0,-100.00,SSW,202,0.0,-999.0,95,-99.99,,,-99.99,24.360001,,2013-10-10 13:52:00,
2013-10-10 09:00:00,49.0,48.0,-100.00,ENE,67,1.0,-999.0,95,-99.99,,,-99.99,207.639999,,2013-10-10 14:00:00,
2013-10-10 09:42:00,49.0,48.0,-100.00,ENE,67,1.0,-999.0,95,-99.99,,,-99.99,207.639999,,2013-10-10 14:42:00,
2013-10-10 09:52:00,49.0,48.0,-100.00,ENE,67,1.0,-999.0,95,-99.99,,,-99.99,207.639999,,2013-10-10 14:52:00,
2013-10-10 10:00:00,59.0,55.0,-100.00,South,180,3.0,-999.0,88,-99.99,,,-99.99,357.279999,,2013-10-10 15:00:00,
2013-10-10 10:43:00,59.0,55.0,-100.00,South,180,3.0,-999.0,88,-99.99,,,-99.99,357.279999,,2013-10-10 15:43:00,
2013-10-10 10:54:00,59.0,55.0,-100.00,South,180,3.0,-999.0,88,-99.99,,,-99.99,357.279999,,2013-10-10 15:54:00,
2013-10-10 11:00:00,64.0,55.0,-100.00,South,180,3.0,-999.0,72,-99.99,,,-99.99,503.440002,,2013-10-10 16:00:00,
2013-10-10 11:42:00,64.0,55.0,-100.00,South,180,3.0,-999.0,72,-99.99,,,-99.99,503.440002,,2013-10-10 16:42:00,
2013-10-10 11:53:00,64.0,55.0,-100.00,South,180,3.0,-999.0,72,-99.99,,,-99.99,503.440002,,2013-10-10 16:53:00,
2013-10-10 12:00:00,67.0,54.0,-100.00,South,180,4.0,-999.0,63,-99.99,,,-99.99,590.440002,,2013-10-10 17:00:00,
2013-10-10 12:42:00,67.0,54.0,-100.00,South,180,4.0,-999.0,63,-99.99,,,-99.99,590.440002,,2013-10-10 17:42:00,
2013-10-10 12:53:00,67.0,54.0,-100.00,South,180,4.0,-999.0,63,-99.99,,,-99.99,590.440002,,2013-10-10 17:53:00,
2013-10-10 13:00:00,68.0,55.0,-100.00,South,180,4.0,-999.0,63,-99.99,,,-99.99,598.559998,,2013-10-10 18:00:00,
2013-10-10 13:42:00,68.0,55.0,-100.00,South,180,4.0,-999.0,63,-99.99,,,-99.99,598.559998,,2013-10-10 18:42:00,
2013-10-10 13:52:00,68.0,55.0,-100.00,South,180,4.0,-999.0,63,-99.99,,,-99.99,598.559998,,2013-10-10 18:52:00,
2013-10-10 15:00:00,67.0,56.0,-100.00,SSE,157,4.0,-999.0,69,-99.99,,,-99.99,453.559998,,2013-10-10 20:00:00,
2013-10-10 15:42:00,67.0,56.0,-100.00,SSE,157,4.0,-999.0,69,-99.99,,,-99.99,453.559998,,2013-10-10 20:42:00,
2013-10-10 15:52:00,67.0,56.0,-100.00,SSE,157,4.0,-999.0,69,-99.99,,,-99.99,453.559998,,2013-10-10 20:52:00,
2013-10-10 16:00:00,65.0,53.0,-100.00,South,180,5.0,-999.0,64,-99.99,,,-99.99,366.559998,,2013-10-10 21:00:00,
2013-10-10 16:44:00,65.0,53.0,-100.00,South,180,5.0,-999.0,64,-99.99,,,-99.99,366.559998,,2013-10-10 21:44:00,
2013-10-10 16:54:00,65.0,53.0,-100.00,South,180,5.0,-999.0,64,-99.99,,,-99.99,366.559998,,2013-10-10 21:54:00,
2013-10-10 17:00:00,64.0,50.0,-100.00,South,180,5.0,-999.0,60,-99.99,,,-99.99,176.320007,,2013-10-10 22:00:00,
2013-10-10 17:43:00,64.0,50.0,-100.00,South,180,5.0,-999.0,60,-99.99,,,-99.99,176.320007,,2013-10-10 22:43:00,
2013-10-10 17:53:00,64.0,50.0,-100.00,South,180,5.0,-999.0,60,-99.99,,,-99.99,176.320007,,2013-10-10 22:53:00,
2013-10-10 18:00:00,61.0,55.0,-100.00,SSE,157,3.0,-999.0,80,-99.99,,,-99.99,95.120003,,2013-10-10 23:00:00,
2013-10-10 18:43:00,61.0,55.0,-100.00,SSE,157,3.0,-999.0,80,-99.99,,,-99.99,95.120003,,2013-10-10 23:43:00,
2013-10-10 18:53:00,61.0,55.0,-100.00,SSE,157,3.0,-999.0,80,-99.99,,,-99.99,95.120003,,2013-10-10 23:53:00,
2013-10-10 19:00:00,56.0,53.0,-100.00,SSE,157,0.0,-999.0,90,-99.99,,,-99.99,3.480000,,2013-10-11 00:00:00,
2013-10-10 19:42:00,56.0,53.0,-100.00,SSE,157,0.0,-999.0,90,-99.99,,,-99.99,3.480000,,2013-10-11 00:42:00,
2013-10-10 19:52:00,56.0,53.0,-100.00,SSE,157,0.0,-999.0,90,-99.99,,,-99.99,3.480000,,2013-10-11 00:52:00,
2013-10-10 20:00:00,51.0,49.0,-100.00,South,180,1.0,-999.0,93,-99.99,,,-99.99,0.000000,,2013-10-11 01:00:00,
2013-10-10 20:42:00,51.0,49.0,-100.00,South,180,1.0,-999.0,93,-99.99,,,-99.99,0.000000,,2013-10-11 01:42:00,
2013-10-10 20:52:00,51.0,49.0,-100.00,South,180,1.0,-999.0,93,-99.99,,,-99.99,0.000000,,2013-10-11 01:52:00,
2013-10-10 21:00:00,50.0,48.0,-100.00,SE,135,1.0,-999.0,94,-99.99,,,-99.99,0.000000,,2013-10-11 02:00:00,
2013-10-10 21:42:00,50.0,48.0,-100.00,SE,135,1.0,-999.0,94,-99.99,,,-99.99,0.000000,,2013-10-11 02:42:00,
2013-10-10 21:52:00,50.0,48.0,-100.00,SE,135,1.0,-999.0,94,-99.99,,,-99.99,0.000000,,2013-10-11 02:52:00,
2013-10-10 22:00:00,50.0,49.0,-100.00,SE,135,0.0,-999.0,95,-99.99,,,-99.99,0.000000,,2013-10-11 03:00:00,
2013-10-10 22:45:00,50.0,49.0,-100.00,SE,135,0.0,-999.0,95,-99.99,,,-99.99,0.000000,,2013-10-11 03:45:00,
2013-10-10 22:54:00,50.0,49.0,-100.00,SE,135,0.0,-999.0,95,-99.99,,,-99.99,0.000000,,2013-10-11 03:54:00,
2013-10-10 23:00:00,50.0,49.0,-100.00,SE,135,0.0,-999.0,95,-99.99,,,-99.99,0.000000,,2013-10-11 04:00:00,
2013-10-10 23:44:00,50.0,49.0,-100.00,SE,135,0.0,-999.0,95,-99.99,,,-99.99,0.000000,,2013-10-11 04:44:00,
2013-10-10 23:53:00,50.0,49.0,-100.00,SE,135,0.0,-999.0,95,-99.99,,,-99.99,0.000000,,2013-10-11 04:53:00,